[[{"header":{"parameterUnit":"m.s-1","parameterCategory":1,"la1":30.2991,"la2":30.254,"lo1":-89.0895,"lo2":-89.0444,"dy":0.0017,"dx":0.0017,"nx":28,"ny":28,"refTime":"2023-09-26T09:00:00:Z","depth":0,"parameterNumber":2,"parameterNumberName":"U-component_of_WINDS"},"data":[0,0,0,0,0,0,0,0,0,0,0,0,0,0,0,0,0,0,0,0,0,0,0,0,0,0,0,0,0,0,0,0,0,0,0,0,0,0,0,0,0,0,0,0,0,0,0,0,0,0,0,0,0,0,0,0,0,0,-2.6196,-2.6197,0,-2.6327,-2.6328,-2.633,-2.6302,-2.63,-2.6298,-2.6295,-2.6436,-2.6442,-2.6448,0,0,0,0,0,0,0,0,0,0,0,0,0,-2.5932,-2.5937,-2.6196,-2.6198,-2.6199,-2.6326,-2.6328,-2.633,-2.6303,-2.63,-2.6297,-2.6294,-2.6434,-2.6441,-2.6449,0,0,0,0,0,0,0,0,0,0,0,0,0,-2.6053,-2.5939,-2.6196,-2.6201,-2.6203,-2.6326,-2.6328,-2.633,-2.6303,-2.63,-2.6296,-2.6293,-2.6432,-2.6441,-2.645,-2.6578,0,0,-2.6477,-2.6481,0,0,0,0,0,0,0,0,-2.6047,-2.6063,-2.6198,-2.6201,-2.6203,-2.6294,-2.6287,-2.6414,-2.6304,-2.6265,-2.6295,-2.6291,-2.6392,-2.6404,-2.6437,-2.6585,-2.6591,-2.6478,-2.6483,-2.6487,-2.649,0,0,0,0,0,0,0,-2.6038,-2.6057,-2.6248,-2.62,-2.6203,-2.62,-2.6213,-2.6311,-2.6348,-2.6268,-2.6267,-2.6282,-2.6393,-2.6429,-2.644,-2.6593,-2.6478,-2.6486,-2.6491,-2.6495,-2.6858,-2.6862,0,0,0,0,0,0,-2.6027,-2.6051,-2.6244,-2.6252,-2.6114,-2.6207,-2.6222,-2.6269,-2.6347,-2.6355,-2.6285,-2.6281,-2.6415,-2.643,-2.6445,-2.6604,-2.6487,-2.6496,-2.6501,-2.6854,-2.6859,-2.6863,0,0,0,0,0,0,-2.6021,-2.6044,-2.6238,-2.6151,-2.6175,-2.6216,-2.6268,-2.6273,-2.6309,-2.6359,-2.6367,-2.6314,-2.6413,-2.6432,-2.6546,-2.6608,-2.65,-2.6508,-2.6849,-2.6855,-2.6861,-2.6921,0,0,0,0,0,0,-2.6014,-2.6042,-2.6089,-2.6152,-2.618,-2.6334,-2.6272,-2.6278,-2.6323,-2.6319,-2.6388,-2.6397,-2.6411,-2.6533,-2.6555,-2.6619,-2.6515,-2.6843,-2.6852,-2.6859,-2.6913,-2.6928,-2.6941,0,0,0,0,0,-2.6004,-2.6101,-2.6092,-2.6115,-2.6239,-2.6338,-2.6354,-2.6367,-2.6328,-2.6378,-2.6411,-2.6394,-2.6598,-2.6544,-2.6569,-2.6637,-2.6839,-2.6849,-2.6859,-2.6907,-2.6925,-2.6941,0,0,0,0,0,0,-2.6046,-2.6109,-2.6099,-2.6219,-2.6273,-2.6333,-2.6395,-2.6385,-2.6453,-2.6446,-2.6461,-2.6478,-2.6594,-2.6627,-2.6566,-2.6768,-2.6714,-2.6729,-2.6742,-2.676,-2.6773,-2.6764,-2.6522,0,0,0,0,0,-2.6069,-2.6141,-2.6194,-2.6294,-2.6322,-2.6354,-2.6397,-2.6403,-2.646,-2.6484,-2.6525,-2.6584,-2.6662,-2.6712,-2.6786,-2.6918,-2.6935,-2.6977,-2.6991,-2.7002,-2.7016,-2.7092,-2.7112,-2.6895,-2.6895,-2.6894,0,0,-2.6118,-2.6161,-2.6206,-2.6304,-2.6346,-2.6424,-2.6373,-2.6457,-2.6516,-2.6497,-2.6607,-2.664,-2.6707,-2.6831,-2.6888,-2.6862,-2.708,-2.7014,-2.7023,-2.703,-2.7104,-2.7125,-2.7143,-2.6901,-2.69,-2.6899,0,0,-2.6246,-2.6285,-2.6374,-2.6418,-2.6483,-2.6504,-2.6526,-2.6588,-2.6609,-2.6719,-2.6708,-2.678,-2.6912,-2.6961,-2.7004,-2.7155,-2.7144,-2.7179,-2.7252,-2.7326,-2.7343,-2.7359,-2.7416,-2.7436,-2.7192,-2.7192,-2.7192,0,-2.6299,-2.6413,-2.6422,-2.6508,-2.6553,-2.6539,-2.6632,-2.6675,-2.6762,-2.6795,-2.6764,-2.6932,-2.6976,-2.7114,-2.7151,-2.7184,-2.7213,-2.7171,-2.7339,-2.7355,-2.737,-2.7425,-2.7446,-2.7196,-2.7195,-2.7195,-2.7195,0,-2.6476,-2.6556,-2.6621,-2.6704,-2.6757,-2.6846,-2.6872,-2.6925,-2.6927,-2.6953,-2.7068,-2.712,-2.7206,-2.7239,-2.7242,-2.7379,-2.7361,-2.7335,-2.7281,-2.7394,-2.7446,-2.7467,-2.7202,-2.72,-2.7199,-2.7198,0,0,-2.6634,-2.6722,-2.6746,-2.6785,-2.6857,-2.6921,-2.7011,-2.7094,-2.714,-2.7202,-2.7281,-2.7394,-2.7372,-2.742,-2.7429,-2.7494,-2.7615,-2.746,-2.7462,-2.749,-2.7774,-2.7794,-2.7818,-2.7607,-2.7611,-2.7615,-2.7769,0,-2.6771,-2.6927,-2.6941,-2.7083,-2.7159,-2.7148,-2.7228,-2.7283,-2.731,-2.7382,-2.7413,-2.7494,-2.7456,-2.7486,-2.755,-2.7586,-2.7672,-2.7575,-2.7685,-2.7689,-2.767,-2.7845,-2.7866,-2.8009,-2.7789,-2.7792,-2.7795,0,-2.6951,-2.7017,-2.7167,-2.7231,-2.7264,-2.7334,-2.7413,-2.748,-2.7544,-2.756,-2.7615,-2.7616,-2.7714,-2.7655,-2.7793,-2.7726,-2.7772,-2.7798,-2.7804,-2.7816,-2.7749,-2.7864,-2.8054,-2.8077,-2.7826,-2.7824,-2.7822,0,-2.7055,-2.7181,-2.7288,-2.7321,-2.7398,-2.7449,-2.7484,-2.7544,-2.7594,-2.7664,-2.7697,-2.7778,-2.7823,-2.7888,-2.7913,-2.7867,-2.805,-2.7993,-2.8069,-2.8069,-2.8109,-2.8107,-2.8312,-2.8135,-2.8135,-2.8135,-2.8134,0,-2.7208,-2.7301,-2.7336,-2.7401,-2.7507,-2.7523,-2.7628,-2.7661,-2.7715,-2.779,-2.7786,-2.7857,-2.7884,-2.7961,-2.7981,-2.8094,-2.8114,-2.8132,-2.8137,-2.8133,-2.8132,-2.8165,-2.8157,-2.814,-2.8139,-2.8138,-2.8137,0,-2.7341,-2.7368,-2.7484,-2.7548,-2.7566,-2.7642,-2.7698,-2.7764,-2.779,-2.7886,-2.791,-2.7953,-2.8044,-2.8074,-2.8184,-2.8198,-2.8331,-2.8326,-2.8309,-2.831,-2.8386,-2.8379,-2.8621,-2.8656,-2.8454,-2.8456,-2.8458,0,-2.7438,-2.7509,-2.7581,-2.763,-2.7666,-2.7745,-2.7796,-2.7816,-2.787,-2.795,-2.8008,-2.8097,-2.817,-2.8316,-2.836,-2.8445,-2.8444,-2.8523,-2.8457,-2.8453,-2.8449,-2.8445,-2.8454,-2.8536,-2.8538,-2.854,-2.8541,0,-2.7608,-2.7618,-2.769,-2.7769,-2.7829,-2.7893,-2.7954,-2.7995,-2.8025,-2.8087,-2.8178,-2.8235,-2.8347,-2.8438,-2.8526,-2.8566,-2.8561,-2.8562,-2.8584,-2.8583,-2.8571,-2.8582,-2.8345,-2.8556,-2.8555,-2.8554,-2.8553,-2.8552,-2.7728,-2.7792,-2.7853,-2.7935,-2.7983,-2.8041,-2.8107,-2.8142,-2.8218,-2.831,-2.8318,-2.8418,-2.8485,-2.8602,-2.8647,-2.8728,-2.8706,-2.8738,-2.8747,-2.8755,-2.8763,-2.8557,-2.8744,-2.8744,-2.8743,-2.8743,-2.8743,0,-2.79,-2.7939,-2.8014,-2.8099,-2.8165,-2.8152,-2.822,-2.8277,-2.8364,-2.8425,-2.8497,-2.8605,-2.8694,-2.8745,-2.8835,-2.8891,-2.8891,-2.8914,-2.8911,-2.8922,-2.8775,-2.8748,-2.8913,-2.8913,-2.8913,-2.8913,-2.8913,-2.8913,-2.7997,-2.8106,-2.8124,-2.8258,-2.8298,-2.8394,-2.8435,-2.849,-2.8539,-2.8659,-2.8732,-2.8764,-2.8823,-2.8918,-2.9,-2.9013,-2.9048,-2.9074,-2.9086,-2.8949,-2.8931,-2.8915,-2.8889,-2.9081,-2.9081,-2.9225,-2.9227,-2.9228]},{"header":{"parameterUnit":"m.s-1","parameterCategory":1,"la1":30.2991,"la2":30.254,"lo1":-89.0895,"lo2":-89.0444,"dy":0.0017,"dx":0.0017,"nx":28,"ny":28,"refTime":"2023-09-26T09:00:00:Z","depth":0,"parameterNumber":3,"parameterNumberName":"V-component_of_WINDS"},"data":[0,0,0,0,0,0,0,0,0,0,0,0,0,0,0,0,0,0,0,0,0,0,0,0,0,0,0,0,0,0,0,0,0,0,0,0,0,0,0,0,0,0,0,0,0,0,0,0,0,0,0,0,0,0,0,0,0,0,3.625,3.625,0,3.6257,3.6257,3.6257,3.6277,3.6277,3.6278,3.6278,3.6284,3.6283,3.6283,0,0,0,0,0,0,0,0,0,0,0,0,0,3.6253,3.6253,3.625,3.625,3.6251,3.6257,3.6257,3.6257,3.6277,3.6277,3.6278,3.6278,3.6284,3.6283,3.6283,0,0,0,0,0,0,0,0,0,0,0,0,0,3.6255,3.6253,3.625,3.6261,3.6262,3.6257,3.6257,3.6257,3.6277,3.6277,3.6278,3.6279,3.6284,3.6283,3.6283,3.6268,0,0,3.6282,3.6282,0,0,0,0,0,0,0,0,3.6255,3.6255,3.6259,3.626,3.6262,3.6267,3.626,3.6261,3.6277,3.6271,3.6278,3.6279,3.6277,3.6278,3.6277,3.6268,3.6268,3.6282,3.6282,3.6281,3.6281,0,0,0,0,0,0,0,3.6255,3.6255,3.6253,3.626,3.6261,3.6265,3.6266,3.626,3.6271,3.6272,3.6273,3.6274,3.6278,3.6278,3.6278,3.6268,3.6282,3.6282,3.6281,3.6281,3.6245,3.6245,0,0,0,0,0,0,3.6253,3.6255,3.6253,3.6253,3.626,3.6265,3.6266,3.6264,3.6271,3.6272,3.6273,3.6275,3.6278,3.6278,3.6278,3.6259,3.6281,3.6281,3.6281,3.6246,3.6245,3.6244,0,0,0,0,0,0,3.6253,3.6253,3.6253,3.6254,3.6255,3.6264,3.6262,3.6264,3.6264,3.6272,3.6274,3.6271,3.6279,3.6278,3.627,3.626,3.6281,3.6281,3.6247,3.6246,3.6245,3.6222,0,0,0,0,0,0,3.6253,3.6253,3.6247,3.6254,3.6254,3.6245,3.6262,3.6264,3.6263,3.6265,3.627,3.6272,3.6279,3.627,3.627,3.6259,3.628,3.6248,3.6246,3.6245,3.6223,3.622,3.6217,0,0,0,0,0,3.6253,3.624,3.6247,3.6247,3.6248,3.6244,3.6244,3.6253,3.6263,3.6257,3.6262,3.6271,3.6261,3.6269,3.6269,3.6258,3.6249,3.6247,3.6245,3.6225,3.6221,3.6217,0,0,0,0,0,0,3.6232,3.6242,3.6249,3.6238,3.624,3.6247,3.624,3.6249,3.6248,3.625,3.6261,3.6262,3.6252,3.6255,3.6263,3.6243,3.6256,3.6255,3.6241,3.6237,3.6234,3.6233,3.628,0,0,0,0,0,3.6226,3.6222,3.6231,3.6221,3.6221,3.6231,3.6229,3.6237,3.6239,3.624,3.6244,3.6246,3.6243,3.6241,3.6239,3.6225,3.6225,3.6217,3.6214,3.6212,3.6209,3.62,3.6196,3.6239,3.6239,3.6239,0,0,3.6213,3.6218,3.6215,3.6216,3.6219,3.6214,3.6231,3.6226,3.6222,3.6239,3.6231,3.6234,3.6237,3.6225,3.622,3.6227,3.6198,3.6209,3.6207,3.6206,3.6198,3.6194,3.6191,3.6238,3.6238,3.6238,0,0,3.6187,3.6192,3.6183,3.6185,3.6189,3.6195,3.6193,3.6199,3.6202,3.6195,3.6206,3.6203,3.6198,3.6199,3.6198,3.6174,3.6182,3.6173,3.6155,3.6147,3.6143,3.614,3.613,3.6126,3.6171,3.6171,3.6171,0,3.6171,3.6165,3.6177,3.6171,3.617,3.6186,3.6176,3.6178,3.6181,3.618,3.6188,3.6182,3.6185,3.6173,3.6167,3.6167,3.6164,3.6171,3.6143,3.614,3.6138,3.6127,3.6124,3.617,3.617,3.617,3.617,0,3.6144,3.614,3.6132,3.6134,3.6133,3.6126,3.6136,3.6133,3.6141,3.6146,3.6138,3.6142,3.614,3.6139,3.6146,3.6127,3.6131,3.6141,3.6154,3.6132,3.6122,3.6119,3.6168,3.6168,3.6169,3.6169,0,0,3.6102,3.6112,3.6109,3.611,3.6116,3.6112,3.6105,3.6104,3.6101,3.6103,3.6096,3.6092,3.6101,3.6101,3.6109,3.6102,3.6079,3.6112,3.6112,3.6104,3.6057,3.6048,3.6043,3.6086,3.6085,3.6085,3.6056,0,3.6076,3.6065,3.6075,3.6061,3.6057,3.6072,3.6066,3.6068,3.6073,3.607,3.6076,3.6072,3.6085,3.6085,3.6079,3.6083,3.607,3.6086,3.6078,3.6078,3.6074,3.6039,3.6029,3.6002,3.6053,3.6052,3.6052,0,3.6044,3.6044,3.603,3.6036,3.6035,3.6029,3.6028,3.6025,3.6028,3.6032,3.6032,3.6042,3.6035,3.605,3.6039,3.6049,3.6047,3.6049,3.6048,3.6046,3.6062,3.6033,3.5994,3.5988,3.6047,3.6047,3.6047,0,3.6013,3.601,3.6,3.6001,3.6009,3.6004,3.6007,3.6011,3.6009,3.6009,3.6008,3.6007,3.6006,3.6004,3.6013,3.6024,3.6001,3.6017,3.6002,3.6002,3.5994,3.5994,3.5951,3.5997,3.5997,3.5997,3.5997,0,3.5981,3.5971,3.5986,3.598,3.5969,3.5982,3.5971,3.5975,3.5978,3.5973,3.5987,3.5981,3.5994,3.599,3.5997,3.5986,3.5986,3.5988,3.5989,3.5985,3.5984,3.5982,3.5983,3.5996,3.5997,3.5997,3.5997,0,3.5943,3.5953,3.5943,3.5952,3.5954,3.5945,3.5952,3.5946,3.5953,3.5946,3.5945,3.5955,3.595,3.596,3.5956,3.5961,3.5945,3.5951,3.5943,3.5944,3.5928,3.5929,3.588,3.5873,3.5926,3.5925,3.5925,0,3.5921,3.5913,3.5921,3.5918,3.5921,3.5917,3.5915,3.5928,3.5926,3.5929,3.5923,3.592,3.5917,3.5909,3.5916,3.5913,3.5917,3.5901,3.5917,3.5912,3.5914,3.5913,3.5912,3.5896,3.5896,3.5895,3.5895,0,3.5879,3.5885,3.5883,3.5882,3.588,3.588,3.5881,3.5879,3.5892,3.5889,3.5885,3.5883,3.588,3.5876,3.5875,3.5878,3.5887,3.589,3.5886,3.588,3.5875,3.5875,3.5931,3.589,3.5891,3.5891,3.5891,3.5891,3.5847,3.584,3.5844,3.5841,3.5844,3.5845,3.5839,3.5846,3.5843,3.5841,3.5849,3.5843,3.5846,3.5846,3.5847,3.5842,3.5849,3.5844,3.5842,3.584,3.5836,3.5879,3.5842,3.5842,3.5842,3.5842,3.5842,0,3.5804,3.5808,3.5805,3.5806,3.5803,3.5815,3.5817,3.5814,3.5808,3.581,3.5808,3.5803,3.5799,3.5806,3.5803,3.5797,3.5802,3.5796,3.5795,3.5795,3.5831,3.5833,3.5792,3.5792,3.5792,3.5792,3.5792,3.5792,3.5781,3.577,3.5776,3.5767,3.5771,3.5765,3.5765,3.5765,3.5767,3.576,3.5758,3.5763,3.5766,3.5764,3.5761,3.5763,3.576,3.5752,3.5755,3.5788,3.5793,3.5797,3.5799,3.5752,3.5752,3.5719,3.5719,3.5718]}]]